PBO Station Position Time Series. Reference Frame : NAM14
Format Version,1.1.0
4-character ID,P161
Station name,OswaldPropCN2005
Begin Date, 2005-05-08
End Date, 2019-10-07
Release Date, 2019-10-08
Reference position, 40.6373632229 North Latitude, -124.2130860462 East Longitude, 32.44332 meters elevation,
Date, North (mm), East (mm), Vertical (mm), North Std. Deviation (mm), East Std. Deviation (mm),              Vertical Std. Deviation (mm), Quality,
2005-05-08,0.00, 0.00, 0.00, 2.17, 1.65, 7.52, repro,
2005-05-09,-1.63, -2.24, -5.24, 2.15, 1.64, 7.46, repro,
2005-05-10,-0.26, -3.23, 2.01, 2.21, 1.67, 7.69, repro,
2005-05-11,0.46, -3.26, -4.41, 2.41, 1.87, 8.43, repro,
2005-05-12,0.63, -2.80, -3.75, 2.22, 1.72, 7.90, repro,
2005-05-13,1.09, -2.72, -6.40, 2.32, 1.78, 8.03, repro,
2005-05-14,-0.33, -1.18, 5.11, 2.27, 1.78, 7.90, repro,
2005-05-15,-1.96, -3.91, 7.23, 2.18, 1.72, 7.66, repro,
2005-05-16,-1.12, -3.46, 6.41, 2.17, 1.69, 7.54, repro,
2005-05-17,-0.83, -2.88, 4.95, 2.32, 1.77, 7.82, repro,
2005-05-18,2.14, -1.30, 20.39, 2.29, 1.75, 7.90, repro,
2005-05-19,1.64, -0.81, -3.19, 2.19, 1.69, 7.60, repro,
2005-05-20,-1.33, -2.45, -5.51, 2.21, 1.73, 7.82, repro,
2005-05-21,-1.22, -2.56, -0.05, 2.19, 1.71, 7.73, repro,
2005-05-22,-1.33, -1.42, -6.98, 2.24, 1.75, 7.71, repro,
2005-05-23,-1.44, -2.22, 0.27, 2.31, 1.79, 7.91, repro,
2005-05-24,-0.57, -2.26, -4.10, 2.21, 1.73, 7.83, repro,
2005-05-25,-0.60, -3.01, 0.23, 2.23, 1.73, 7.77, repro,
2005-05-26,-0.43, -3.05, -3.53, 2.16, 1.69, 7.56, repro,
2005-05-27,0.19, -3.25, -0.52, 2.24, 1.75, 7.98, repro,
2005-05-28,-0.97, -3.53, -3.09, 2.24, 1.76, 7.77, repro,
2005-05-29,1.64, -3.93, -1.02, 2.35, 1.83, 8.49, repro,
2005-05-30,-0.28, -2.17, -1.64, 2.19, 1.68, 7.62, repro,
2005-05-31,-0.73, -2.49, 7.26, 2.19, 1.69, 7.60, repro,
2005-06-01,0.52, -3.27, 5.19, 2.15, 1.62, 7.40, repro,
2005-06-02,0.83, -2.05, -6.50, 2.17, 1.67, 7.63, repro,
2005-06-03,1.39, -2.07, -1.21, 2.17, 1.64, 7.51, repro,
2005-06-04,1.53, -2.31, 5.15, 2.62, 2.23, 9.82, repro,
2005-06-05,-0.17, -3.31, 4.95, 2.14, 1.62, 7.40, repro,
2005-06-06,-1.56, -2.85, 2.56, 2.17, 1.64, 7.49, repro,
2005-06-07,-0.77, -1.57, -4.11, 2.59, 1.95, 9.26, repro,
2005-06-08,-1.13, -1.33, 1.11, 2.25, 1.73, 7.85, repro,
2005-06-09,-2.11, -3.99, 1.97, 2.17, 1.66, 7.60, repro,
2005-06-10,-0.49, -3.82, 6.30, 2.21, 1.69, 7.68, repro,
2005-06-11,-1.38, -3.07, 3.60, 2.23, 1.75, 7.95, repro,
2005-06-12,1.29, -2.53, -0.02, 2.26, 1.73, 7.82, repro,
2005-06-13,-0.62, -0.64, -6.82, 2.36, 1.85, 8.27, repro,
2005-06-14,1.09, -4.24, -0.79, 2.20, 1.68, 7.69, repro,
2005-06-15,0.38, -7.65, 3.51, 2.18, 1.69, 7.71, repro,
2005-06-16,3.36, -8.99, 7.56, 2.24, 1.67, 7.61, repro,
2005-06-17,1.32, -8.81, 8.68, 2.23, 1.66, 7.58, repro,
2005-06-18,1.59, -5.40, 0.23, 2.18, 1.67, 7.65, repro,
2005-06-19,-1.55, -7.69, -0.86, 2.18, 1.68, 7.70, repro,
2005-06-20,-0.00, -6.25, -2.40, 2.30, 1.73, 7.77, repro,
2005-06-21,-1.07, -6.35, 1.42, 2.15, 1.63, 7.40, repro,
2005-06-22,-0.92, -6.40, -4.76, 2.14, 1.63, 7.42, repro,
2005-06-23,0.26, -5.84, -0.60, 2.15, 1.62, 7.41, repro,
2005-06-24,-1.98, -5.65, 8.61, 2.17, 1.67, 7.65, repro,
2005-06-25,-0.68, -6.26, -1.82, 2.20, 1.68, 7.70, repro,
2005-06-26,-0.99, -6.41, 4.13, 2.22, 1.67, 7.56, repro,
2005-06-27,0.49, -7.08, 3.81, 2.16, 1.62, 7.42, repro,
2005-06-28,-1.05, -6.97, 2.28, 2.15, 1.62, 7.40, repro,
2005-06-29,-0.35, -5.79, 3.56, 2.23, 1.72, 7.66, repro,
2005-06-30,-0.85, -5.21, -1.38, 2.16, 1.65, 7.57, repro,
2005-07-01,-0.91, -6.99, 5.79, 2.18, 1.67, 7.67, repro,
2005-07-02,-1.95, -6.54, 0.01, 2.20, 1.66, 7.60, repro,
2005-07-03,-1.09, -6.83, 7.09, 2.15, 1.63, 7.44, repro,
2005-07-04,-1.62, -5.60, 3.17, 2.14, 1.63, 7.43, repro,
2005-07-05,-2.50, -5.12, 0.06, 2.17, 1.66, 7.55, repro,
2005-07-06,-3.25, -6.30, 3.20, 2.20, 1.68, 7.52, repro,
2005-07-07,-0.92, -6.59, -0.79, 2.20, 1.68, 7.57, repro,
2005-07-08,-1.05, -6.54, 2.99, 2.15, 1.64, 7.45, repro,
2005-07-09,-1.97, -7.22, 9.84, 2.18, 1.65, 7.54, repro,
2005-07-10,-0.66, -4.97, -1.80, 2.27, 1.74, 7.92, repro,
2005-07-11,-0.68, -6.95, 9.05, 2.20, 1.68, 7.50, repro,
2005-07-12,-4.29, -5.52, 1.53, 2.25, 1.72, 7.61, repro,
2005-07-13,-2.44, -4.48, 3.71, 2.14, 1.63, 7.42, repro,
2005-07-14,-1.37, -6.80, 4.33, 2.18, 1.69, 7.67, repro,
2005-07-15,-1.25, -5.50, 4.84, 2.22, 1.71, 7.74, repro,
2005-07-16,-1.86, -5.56, 0.41, 2.18, 1.66, 7.59, repro,
2005-07-17,-0.39, -5.96, 3.54, 2.20, 1.68, 7.49, repro,
2005-07-18,-1.63, -6.00, 2.70, 2.13, 1.64, 7.44, repro,
2005-07-19,-0.80, -6.62, 5.02, 2.16, 1.64, 7.48, repro,
2005-07-20,-0.45, -6.00, 3.68, 2.23, 1.67, 7.69, repro,
2005-07-21,0.64, -6.58, 4.56, 2.16, 1.64, 7.48, repro,
2005-07-22,-0.62, -5.50, 6.62, 2.19, 1.68, 7.50, repro,
2005-07-23,-2.67, -6.10, 6.51, 2.19, 1.66, 7.50, repro,
2005-07-24,-1.53, -6.41, 5.66, 2.18, 1.67, 7.61, repro,
2005-07-25,-1.76, -6.09, 6.35, 2.19, 1.67, 7.65, repro,
2005-07-26,-1.15, -5.97, 2.12, 2.22, 1.73, 7.80, repro,
2005-07-27,-0.44, -6.13, 1.48, 2.29, 1.79, 7.93, repro,
2005-07-28,-0.93, -6.51, 1.59, 2.30, 1.79, 7.92, repro,
2005-07-29,-2.04, -7.16, 6.58, 2.32, 1.75, 7.94, repro,
2005-07-30,-0.27, -5.91, 5.78, 2.20, 1.67, 7.67, repro,
2005-07-31,0.39, -4.99, 4.49, 2.56, 2.14, 9.17, repro,
2005-08-01,-0.55, -5.35, 1.93, 2.20, 1.66, 7.65, repro,
2005-08-02,-1.53, -6.04, 7.10, 2.18, 1.66, 7.57, repro,
2005-08-03,0.01, -6.42, 7.44, 2.21, 1.69, 7.54, repro,
2005-08-04,-1.03, -6.04, -0.99, 2.15, 1.64, 7.45, repro,
2005-08-05,0.26, -4.67, 2.10, 2.15, 1.64, 7.47, repro,
2005-08-06,-1.60, -5.67, 10.47, 2.16, 1.64, 7.48, repro,
2005-08-07,-1.12, -5.54, 1.95, 2.15, 1.63, 7.42, repro,
2005-08-08,-0.47, -6.56, 4.70, 2.16, 1.65, 7.50, repro,
2005-08-09,-0.41, -6.03, 2.87, 2.21, 1.67, 7.54, repro,
2005-08-10,0.08, -5.00, -0.76, 2.23, 1.68, 7.64, repro,
2005-08-11,0.07, -4.51, -2.75, 2.24, 1.75, 7.80, repro,
2005-08-12,-0.49, -4.98, 1.46, 2.34, 1.82, 8.11, repro,
2005-08-13,-0.37, -6.65, 6.41, 2.21, 1.69, 7.54, repro,
2005-08-14,-0.82, -6.20, 4.79, 2.25, 1.76, 7.73, repro,
2005-08-15,-0.14, -7.28, 2.32, 2.24, 1.72, 7.84, repro,
2005-08-16,0.46, -4.11, 5.28, 2.27, 1.72, 7.72, repro,
2005-08-17,-0.78, -4.38, 2.26, 2.20, 1.70, 7.62, repro,
2005-08-18,-2.59, -5.17, -0.21, 2.20, 1.66, 7.63, repro,
2005-08-19,0.51, -7.05, 5.63, 2.25, 1.74, 7.72, repro,
2005-08-20,1.43, -6.28, 5.93, 2.31, 1.76, 7.85, repro,
2005-08-21,-0.63, -5.02, 14.17, 2.18, 1.65, 7.53, repro,
2005-08-22,-1.00, -5.17, 6.67, 2.18, 1.64, 7.49, repro,
2005-08-23,-1.96, -5.12, 2.95, 2.19, 1.69, 7.69, repro,
2005-08-24,0.78, -6.02, -0.90, 2.19, 1.68, 7.62, repro,
2005-08-25,-1.68, -6.13, 5.34, 2.19, 1.68, 7.63, repro,
2005-08-26,-1.22, -5.93, 10.48, 2.24, 1.67, 7.60, repro,
2005-08-27,-0.55, -5.16, 1.86, 2.17, 1.65, 7.52, repro,
2005-08-28,-0.43, -4.49, 7.46, 2.15, 1.63, 7.41, repro,
2005-08-29,0.35, -5.56, 6.71, 2.61, 2.07, 9.14, repro,
2005-08-30,-0.43, -4.26, 7.99, 2.22, 1.74, 7.75, repro,
2005-08-31,-0.54, -4.28, 1.76, 2.17, 1.64, 7.43, repro,
2005-09-01,-0.13, -5.40, 9.57, 2.18, 1.65, 7.46, repro,
2005-09-02,-1.47, -3.29, 2.48, 2.28, 1.73, 7.97, repro,
2005-09-03,-1.15, -3.88, 5.28, 2.20, 1.69, 7.68, repro,
2005-09-04,-0.53, -4.95, 5.68, 2.20, 1.67, 7.58, repro,
2005-09-05,-1.11, -4.11, -1.32, 2.14, 1.63, 7.37, repro,
2005-09-06,-0.83, -5.34, 0.62, 2.16, 1.63, 7.40, repro,
2005-09-07,-0.54, -4.77, 7.09, 2.30, 1.67, 7.65, repro,
2005-09-08,-2.59, -5.69, 4.84, 2.23, 1.66, 7.62, repro,
2005-09-09,-0.52, -5.47, 10.11, 2.22, 1.65, 7.53, repro,
2005-09-10,-0.54, -4.99, 7.39, 2.26, 1.69, 7.77, repro,
2005-09-11,-0.29, -4.93, 2.16, 2.24, 1.67, 7.63, repro,
2005-09-12,-0.02, -5.47, 6.93, 2.22, 1.65, 7.51, repro,
2005-09-13,-0.10, -3.76, 6.17, 2.32, 1.72, 7.89, repro,
2005-09-14,0.39, -4.94, 10.22, 2.38, 1.79, 8.15, repro,
2005-09-15,-0.48, -4.06, 2.07, 2.37, 1.78, 8.05, repro,
2005-09-16,0.17, -4.59, 0.61, 2.26, 1.70, 7.80, repro,
2005-09-17,-0.24, -4.84, 5.22, 2.15, 1.63, 7.43, repro,
2005-09-18,-1.42, -3.75, 11.74, 2.14, 1.62, 7.37, repro,
2005-09-19,-0.68, -4.45, 5.72, 2.22, 1.66, 7.69, repro,
2005-09-20,0.58, -5.09, 3.67, 2.14, 1.64, 7.40, repro,
2005-09-21,0.21, -4.89, 3.61, 2.24, 1.73, 7.70, repro,
2005-09-22,-0.97, -4.78, -2.49, 2.16, 1.62, 7.42, repro,
2005-09-23,0.22, -6.44, 2.21, 2.31, 1.84, 8.42, repro,
2005-09-24,-0.90, -4.69, 0.27, 2.47, 1.99, 8.76, repro,
2005-09-25,-1.20, -4.50, 8.20, 2.19, 1.67, 7.63, repro,
2005-09-26,-1.46, -3.96, 3.23, 2.30, 1.74, 7.84, repro,
2005-09-27,0.04, -4.47, 5.35, 2.22, 1.73, 7.87, repro,
2005-09-28,-1.72, -4.57, 11.52, 2.25, 1.71, 7.79, repro,
2005-09-29,-0.82, -4.27, 10.44, 2.81, 2.24, 9.90, repro,
2005-09-30,-0.56, -3.88, 13.75, 2.18, 1.66, 7.56, repro,
2005-10-01,-1.32, -5.54, 14.17, 2.15, 1.64, 7.47, repro,
2005-10-02,-0.64, -4.12, 2.13, 2.22, 1.71, 7.83, repro,
2005-10-03,-0.04, -5.45, 9.68, 2.19, 1.66, 7.58, repro,
2005-10-04,-0.48, -4.67, 3.89, 2.25, 1.70, 7.80, repro,
2005-10-05,-0.59, -4.54, -0.44, 2.20, 1.63, 7.49, repro,
2005-10-06,-0.49, -5.76, -0.90, 2.24, 1.69, 7.75, repro,
2005-10-07,-1.12, -5.10, 13.84, 2.20, 1.68, 7.49, repro,
2005-10-08,-1.14, -4.93, 9.94, 2.17, 1.66, 7.52, repro,
2005-10-09,-1.52, -4.44, 5.65, 2.18, 1.66, 7.57, repro,
2005-10-10,-1.41, -5.58, 11.24, 2.19, 1.67, 7.62, repro,
2005-10-11,-1.32, -4.76, 7.63, 2.18, 1.67, 7.53, repro,
2005-10-12,-0.34, -3.95, 7.25, 2.24, 1.71, 7.62, repro,
2005-10-13,-2.29, -3.79, 17.84, 2.56, 2.08, 9.15, repro,
2005-10-14,0.50, -3.98, 11.19, 2.17, 1.63, 7.38, repro,
2005-10-15,-0.07, -4.57, 13.68, 2.21, 1.64, 7.52, repro,
2005-10-16,-2.40, -4.84, 13.57, 2.33, 1.77, 8.06, repro,
2005-10-17,-0.64, -4.08, 11.42, 2.17, 1.63, 7.42, repro,
2005-10-18,-0.62, -4.48, 14.10, 2.30, 1.78, 7.97, repro,
2005-10-19,-0.69, -4.64, 4.51, 2.27, 1.76, 8.00, repro,
2005-10-20,-0.78, -4.26, 6.06, 2.30, 1.70, 7.74, repro,
2005-10-21,-1.63, -5.23, 9.67, 2.26, 1.71, 7.84, repro,
2005-10-22,-1.36, -3.81, 4.12, 2.19, 1.67, 7.58, repro,
2005-10-23,-0.12, -4.60, 8.34, 2.21, 1.68, 7.47, repro,
2005-10-24,-0.77, -5.50, 5.14, 2.24, 1.74, 7.73, repro,
2005-10-25,1.29, -3.88, 4.91, 2.18, 1.65, 7.49, repro,
2005-10-26,0.40, -3.99, 10.21, 2.26, 1.74, 7.82, repro,
2005-10-27,-0.22, -3.31, -1.12, 2.18, 1.69, 7.62, repro,
2005-10-28,-0.21, -5.81, 9.12, 2.24, 1.71, 7.64, repro,
2005-10-29,-0.18, -4.43, 7.97, 2.19, 1.67, 7.64, repro,
2005-10-30,0.24, -4.55, -4.88, 2.42, 2.03, 8.74, repro,
2005-10-31,-1.12, -3.76, -5.08, 2.28, 1.75, 7.84, repro,
2005-11-01,1.19, -4.21, 0.50, 2.34, 1.80, 7.99, repro,
2005-11-02,0.62, -3.03, 2.10, 2.39, 1.93, 8.38, repro,
2005-11-03,1.41, -3.35, 9.52, 2.27, 1.75, 7.79, repro,
2005-11-04,0.57, -3.37, 11.68, 2.26, 1.75, 7.80, repro,
2005-11-05,-1.29, -4.15, 1.24, 2.23, 1.75, 7.71, repro,
2005-11-06,0.44, -3.45, 6.74, 2.35, 1.87, 8.28, repro,
2005-11-07,0.78, -3.54, 1.28, 2.24, 1.75, 7.78, repro,
2005-11-08,0.20, -2.72, -4.80, 2.28, 1.78, 7.98, repro,
2005-11-09,0.40, -3.58, -0.48, 2.37, 1.86, 8.26, repro,
2005-11-10,0.27, -3.50, -0.17, 2.63, 1.97, 8.81, repro,
2005-11-11,2.44, -4.79, 5.33, 2.26, 1.74, 7.85, repro,
2005-11-12,-0.81, -2.97, -0.28, 2.16, 1.70, 7.52, repro,
2005-11-13,0.07, -1.70, 2.48, 2.64, 2.40, 9.68, repro,
2005-11-14,0.59, -4.07, -0.47, 2.30, 1.80, 8.07, repro,
2005-11-15,1.25, -3.84, -6.79, 2.19, 1.64, 7.53, repro,
2005-11-16,1.58, -3.27, -13.71, 2.19, 1.68, 7.64, repro,
2005-11-17,-0.96, -3.34, -8.10, 2.13, 1.62, 7.36, repro,
2005-11-18,-0.61, -2.63, -9.55, 2.15, 1.64, 7.45, repro,
2005-11-19,-0.73, -4.64, 0.01, 2.18, 1.69, 7.69, repro,
2005-11-20,-0.45, -3.96, -2.83, 2.20, 1.66, 7.63, repro,
2005-11-21,1.21, -4.77, 4.46, 2.32, 1.75, 8.01, repro,
2005-11-22,-0.54, -2.88, 1.81, 2.25, 1.74, 7.81, repro,
2005-11-23,-0.27, -3.10, 1.52, 2.22, 1.70, 7.75, repro,
2005-11-24,-0.67, -3.39, 5.40, 2.17, 1.66, 7.61, repro,
2005-11-25,2.18, -2.62, 3.20, 2.20, 1.70, 7.78, repro,
2005-11-26,0.58, -3.26, -3.97, 2.26, 1.75, 7.87, repro,
2005-11-27,-0.12, -3.58, -1.00, 2.21, 1.72, 7.77, repro,
2005-11-28,1.20, -3.32, -6.78, 2.22, 1.72, 7.79, repro,
2005-11-29,-2.20, -2.85, -0.93, 2.21, 1.71, 7.76, repro,
2005-11-30,0.00, -2.04, -7.77, 2.19, 1.67, 7.53, repro,
2005-12-01,3.34, -3.81, -3.22, 2.20, 1.68, 7.57, repro,
2005-12-02,0.31, -3.51, -9.59, 2.19, 1.71, 7.65, repro,
2005-12-03,-0.69, -1.37, -12.60, 2.52, 2.14, 9.27, repro,
2005-12-04,-0.56, -1.45, -9.43, 2.16, 1.64, 7.44, repro,
2005-12-05,-0.05, -1.35, -7.51, 2.27, 1.75, 7.91, repro,
2005-12-06,-0.34, -1.47, -8.89, 2.23, 1.70, 7.72, repro,
2005-12-07,-0.68, -2.69, -0.26, 2.21, 1.69, 7.60, repro,
2005-12-08,-1.12, -1.56, -1.09, 2.20, 1.70, 7.61, repro,
2005-12-09,-1.05, -1.93, -5.82, 2.26, 1.77, 7.88, repro,
2005-12-10,-0.84, -1.79, -8.46, 2.13, 1.63, 7.36, repro,
2005-12-11,-0.74, -2.29, -2.94, 2.17, 1.67, 7.56, repro,
2005-12-12,-0.80, -3.28, -0.62, 2.14, 1.62, 7.33, repro,
2005-12-13,-0.06, -2.72, -6.61, 2.19, 1.65, 7.53, repro,
2005-12-14,-0.48, -2.70, -6.99, 2.21, 1.70, 7.71, repro,
2005-12-15,-0.04, -2.30, -10.77, 2.21, 1.68, 7.63, repro,
2005-12-16,-0.11, -2.22, -8.77, 2.18, 1.67, 7.54, repro,
2005-12-17,-1.08, -3.24, -4.86, 2.23, 1.71, 7.60, repro,
2005-12-18,5.17, -3.26, 1.77, 2.16, 1.70, 7.54, repro,
2005-12-19,3.48, -4.31, 0.86, 2.27, 1.82, 7.82, repro,
2005-12-20,1.74, 0.76, 11.11, 2.26, 1.81, 7.97, repro,
2005-12-21,5.65, 0.73, -4.09, 2.21, 1.76, 7.60, repro,
2005-12-22,0.94, -1.30, -0.71, 2.23, 1.83, 7.83, repro,
2005-12-23,-0.30, -0.97, -16.19, 2.35, 1.84, 8.22, repro,
2005-12-24,-0.90, -1.90, -2.32, 2.32, 1.83, 8.05, repro,
2005-12-25,-0.02, -5.57, 8.28, 2.20, 1.71, 7.62, repro,
2005-12-26,-1.80, -2.86, 2.74, 2.20, 1.73, 7.64, repro,
2005-12-27,3.51, -0.97, 2.02, 2.22, 1.76, 7.69, repro,
2005-12-28,1.30, -2.08, -2.46, 2.22, 1.71, 7.57, repro,
2005-12-29,-2.41, -0.19, -12.50, 2.32, 1.83, 7.95, repro,
2005-12-30,-0.86, -4.12, 9.51, 2.31, 1.87, 8.06, repro,
2005-12-31,-1.13, -3.49, 2.69, 2.31, 1.82, 7.87, repro,
2006-01-01,1.85, -2.19, 5.35, 2.29, 1.83, 7.91, repro,
2006-01-02,1.80, -1.99, 6.03, 2.25, 1.75, 7.60, repro,
2006-01-03,0.03, -2.29, -6.86, 2.45, 2.02, 8.48, repro,
2006-01-04,-1.80, -2.14, -15.82, 2.30, 1.89, 7.99, repro,
2006-01-05,1.93, -1.63, -12.35, 2.24, 1.82, 7.80, repro,
2006-01-06,-0.92, -1.35, -9.75, 2.30, 1.87, 8.07, repro,
2006-01-07,-1.41, -5.28, -6.38, 2.22, 1.72, 7.63, repro,
2006-01-08,-0.47, -2.48, -9.10, 2.28, 1.86, 8.01, repro,
2006-01-09,0.30, -1.65, -7.53, 2.30, 1.86, 8.05, repro,
2006-01-10,0.28, -4.96, -2.68, 2.31, 1.86, 8.04, repro,
2006-01-11,0.93, -1.17, -4.93, 2.28, 1.83, 7.95, repro,
2006-01-12,0.70, -2.50, -3.91, 2.27, 1.82, 7.73, repro,
2006-01-13,-0.26, -1.61, 4.54, 2.30, 1.87, 8.07, repro,
2006-01-14,0.32, -3.40, -2.62, 2.20, 1.69, 7.50, repro,
2006-01-15,0.46, -2.20, -9.98, 2.18, 1.69, 7.43, repro,
2006-01-16,0.05, -2.62, -0.34, 2.23, 1.82, 7.81, repro,
2006-01-17,1.70, -1.13, -1.45, 2.25, 1.78, 7.80, repro,
2006-01-18,0.21, -3.39, 3.12, 2.19, 1.69, 7.44, repro,
2006-01-19,0.36, -2.42, -2.97, 2.22, 1.69, 7.59, repro,
2006-01-20,0.04, -1.73, -11.05, 2.31, 1.83, 8.06, repro,
2006-01-21,-0.31, -0.58, -0.57, 2.18, 1.67, 7.40, repro,
2006-01-22,0.62, -1.35, -9.73, 2.21, 1.73, 7.64, repro,
2006-01-23,-2.73, -0.74, -7.96, 2.17, 1.66, 7.40, repro,
2006-01-24,-0.93, -1.87, -4.47, 2.20, 1.69, 7.55, repro,
2006-01-25,-0.71, -3.26, 1.44, 2.18, 1.65, 7.48, repro,
2006-01-26,0.02, -2.24, -7.13, 2.11, 1.60, 7.19, repro,
2006-01-27,0.47, -1.85, -1.33, 2.10, 1.61, 7.25, repro,
2006-01-28,1.74, -1.74, -1.19, 2.12, 1.61, 7.29, repro,
2006-01-29,-1.32, -1.45, -6.36, 2.12, 1.62, 7.37, repro,
2006-01-30,0.78, -2.64, 6.42, 2.12, 1.60, 7.21, repro,
2006-01-31,-0.37, -1.15, 1.69, 2.13, 1.64, 7.37, repro,
2006-02-01,0.92, -4.25, 1.14, 2.18, 1.66, 7.56, repro,
2006-02-02,-0.68, -1.59, 1.77, 2.13, 1.62, 7.30, repro,
2006-02-03,-1.72, -1.89, 6.19, 2.18, 1.67, 7.61, repro,
2006-02-04,-0.02, -1.31, 3.11, 2.20, 1.62, 7.54, repro,
2006-02-05,-0.26, -1.70, -4.47, 2.18, 1.64, 7.49, repro,
2006-02-06,-1.46, -2.33, -6.50, 2.18, 1.68, 7.68, repro,
2006-02-07,-0.53, -1.21, -6.75, 2.12, 1.59, 7.30, repro,
2006-02-08,-0.72, -0.67, -7.96, 2.14, 1.63, 7.45, repro,
2006-02-09,-0.33, -1.39, -9.33, 2.19, 1.62, 7.47, repro,
2006-02-10,-1.46, -1.58, -7.91, 2.30, 1.68, 7.78, repro,
2006-02-11,-0.57, -0.97, -13.49, 2.14, 1.60, 7.32, repro,
2006-02-12,-0.68, -0.54, -9.38, 2.14, 1.58, 7.33, repro,
2006-02-13,0.78, -0.52, -8.80, 2.14, 1.61, 7.41, repro,
2006-02-14,-0.94, -1.21, -2.55, 2.12, 1.59, 7.29, repro,
2006-02-15,-0.93, -1.62, -0.53, 2.12, 1.58, 7.28, repro,
2006-02-16,-0.93, -1.24, -6.65, 2.16, 1.59, 7.41, repro,
2006-02-17,-1.26, -2.22, -6.58, 2.17, 1.60, 7.46, repro,
2006-02-18,-1.01, -3.00, -7.11, 2.12, 1.58, 7.24, repro,
2006-02-19,-0.00, -1.01, -2.93, 2.19, 1.65, 7.58, repro,
2006-02-20,-0.89, -1.12, -5.00, 2.13, 1.59, 7.32, repro,
2006-02-21,-0.75, -0.37, -5.26, 2.18, 1.61, 7.54, repro,
2006-02-22,-0.14, -1.37, -0.90, 2.15, 1.59, 7.38, repro,
2006-02-23,-1.28, -1.43, -7.30, 2.15, 1.60, 7.45, repro,
2006-02-24,-0.72, -1.14, -3.50, 2.11, 1.58, 7.27, repro,
2006-02-25,-1.30, -0.71, -8.17, 2.17, 1.65, 7.61, repro,
2006-02-26,-2.39, -0.75, -2.79, 2.16, 1.61, 7.46, repro,
2006-02-27,-1.14, -2.72, 18.60, 2.19, 1.62, 7.51, repro,
2006-02-28,-2.71, -1.71, 13.09, 2.19, 1.61, 7.46, repro,
2006-03-01,-0.08, 0.76, -0.87, 2.25, 1.63, 7.57, repro,
2006-03-02,1.52, -1.40, -7.93, 2.14, 1.60, 7.40, repro,
2006-03-03,-0.70, -1.66, -2.02, 2.27, 1.67, 7.92, repro,
2006-03-04,-0.63, -1.14, -4.80, 2.27, 1.75, 7.94, repro,
2006-03-05,-0.84, 0.09, 1.48, 2.13, 1.59, 7.30, repro,
2006-03-06,1.10, -1.74, 0.15, 2.13, 1.60, 7.40, repro,
2006-03-07,0.20, -1.82, -0.05, 2.13, 1.61, 7.43, repro,
2006-03-08,-1.72, -2.02, -5.94, 2.16, 1.66, 7.60, repro,
2006-03-09,-1.39, -2.96, 5.32, 2.14, 1.61, 7.38, repro,
2006-03-10,-1.25, -3.06, 12.47, 2.13, 1.61, 7.42, repro,
2006-03-11,-1.16, -2.78, 2.46, 2.17, 1.61, 7.47, repro,
2006-03-12,-1.37, -2.84, -2.20, 2.18, 1.63, 7.57, repro,
2006-03-13,-1.95, -0.60, -2.77, 2.16, 1.63, 7.55, repro,
2006-03-14,-1.20, -0.45, -3.98, 2.18, 1.64, 7.59, repro,
2006-03-15,-0.58, -0.65, -0.20, 2.18, 1.65, 7.58, repro,
2006-03-16,-1.02, -2.77, 3.73, 2.29, 1.71, 7.99, repro,
2006-03-17,-1.98, -2.79, -5.34, 2.26, 1.71, 7.98, repro,
2006-03-18,-0.29, -1.43, -1.56, 2.15, 1.62, 7.42, repro,
2006-03-19,-1.85, -3.18, -2.27, 2.15, 1.63, 7.49, repro,
2006-03-20,-1.75, -2.25, -0.62, 2.17, 1.64, 7.53, repro,
2006-03-21,-1.17, -2.64, 1.15, 2.16, 1.63, 7.51, repro,
2006-03-22,-0.71, -2.20, -6.58, 2.19, 1.69, 7.74, repro,
2006-03-23,-0.12, 0.48, 4.87, 2.22, 1.68, 7.65, repro,
2006-03-24,1.11, -0.97, 0.35, 2.20, 1.67, 7.58, repro,
2006-03-25,-0.15, -1.71, 6.91, 2.24, 1.69, 7.71, repro,
2006-03-26,-1.56, -0.99, -0.28, 2.26, 1.71, 7.74, repro,
2006-03-27,-1.66, -1.45, 3.36, 2.20, 1.68, 7.62, repro,
2006-03-28,-0.11, -1.32, 6.90, 2.13, 1.66, 7.42, repro,
2006-03-29,-1.28, -1.25, -0.09, 2.07, 1.61, 7.22, repro,
2006-03-30,-0.47, -1.45, 0.68, 2.08, 1.61, 7.27, repro,
2006-03-31,0.91, -1.91, 0.95, 2.09, 1.63, 7.35, repro,
2006-04-01,-0.16, -2.09, 2.98, 2.09, 1.62, 7.38, repro,
2006-04-02,0.40, -1.29, -2.02, 2.09, 1.64, 7.42, repro,
2006-04-03,0.70, -0.74, -2.41, 2.09, 1.62, 7.37, repro,
2006-04-04,-0.56, -2.12, -0.74, 2.13, 1.65, 7.51, repro,
2006-04-05,-1.48, -2.87, 3.23, 2.07, 1.60, 7.26, repro,
2006-04-06,-2.13, -2.06, -3.69, 2.13, 1.66, 7.54, repro,
2006-04-07,-2.16, -2.49, -3.72, 2.20, 1.66, 7.66, repro,
2006-04-08,0.48, -0.92, -6.32, 2.26, 1.73, 8.07, repro,
2006-04-09,-1.01, -2.72, -4.37, 2.11, 1.65, 7.47, repro,
2006-04-10,-1.83, -1.76, -2.24, 2.10, 1.61, 7.36, repro,
2006-04-11,0.86, 0.00, -1.29, 2.14, 1.63, 7.54, repro,
2006-04-12,-0.42, -0.81, -2.42, 2.15, 1.66, 7.65, repro,
2006-04-13,-0.10, -2.66, -3.30, 2.12, 1.68, 7.63, repro,
2006-04-14,-1.42, -2.72, 0.94, 2.08, 1.60, 7.30, repro,
2006-04-15,0.76, -1.61, 11.00, 2.15, 1.65, 7.56, repro,
2006-04-16,-0.42, -1.53, -2.84, 2.08, 1.61, 7.34, repro,
2006-04-17,-0.51, -1.47, -0.77, 2.11, 1.63, 7.49, repro,
2006-04-18,-0.50, -1.82, -5.01, 2.09, 1.65, 7.48, repro,
2006-04-19,-0.53, -2.23, -4.72, 2.13, 1.66, 7.62, repro,
2006-04-20,-0.74, -2.73, 1.36, 2.11, 1.65, 7.52, repro,
2006-04-21,-1.84, -2.34, -0.64, 2.08, 1.61, 7.34, repro,
2006-04-22,0.37, -1.70, 1.19, 2.14, 1.65, 7.53, repro,
2006-04-23,0.77, -2.71, 1.29, 2.14, 1.69, 7.76, repro,
2006-04-24,0.06, -1.24, -5.30, 2.17, 1.79, 7.85, repro,
2006-04-25,-0.87, -2.69, 1.88, 2.11, 1.66, 7.53, repro,
2006-04-26,-1.63, -1.35, -0.20, 2.13, 1.66, 7.60, repro,
2006-04-27,-0.99, -0.77, -6.53, 2.19, 1.66, 7.55, repro,
2006-04-28,-0.03, -1.65, -0.37, 2.16, 1.63, 7.51, repro,
2006-04-29,-0.16, -1.87, -0.94, 2.07, 1.61, 7.33, repro,
2006-04-30,-1.72, -1.09, -2.58, 2.08, 1.62, 7.37, repro,
2006-05-01,-1.91, -1.95, -3.29, 2.09, 1.62, 7.43, repro,
2006-05-02,-1.85, -1.70, -4.40, 2.08, 1.61, 7.36, repro,
2006-05-03,-0.53, -2.01, -4.68, 2.06, 1.59, 7.26, repro,
2006-05-04,0.60, -2.48, -3.33, 2.09, 1.61, 7.37, repro,
2006-05-05,0.41, -1.87, 0.42, 2.09, 1.65, 7.57, repro,
2006-05-06,-0.03, -3.08, 2.78, 2.08, 1.61, 7.38, repro,
2006-05-07,-2.07, -2.56, 2.23, 2.11, 1.65, 7.57, repro,
2006-05-08,-1.10, -1.72, 0.14, 2.08, 1.60, 7.34, repro,
2006-05-09,-1.29, -2.22, -2.56, 2.18, 1.68, 7.74, repro,
2006-05-10,-0.03, -2.37, -4.36, 2.09, 1.62, 7.43, repro,
2006-05-11,-0.79, -2.34, 2.43, 2.09, 1.66, 7.51, repro,
2006-05-12,-1.20, -1.72, 2.16, 2.06, 1.62, 7.36, repro,
2006-05-13,-1.02, -2.27, -2.71, 2.06, 1.61, 7.33, repro,
2006-05-14,-1.07, -2.86, 2.36, 2.09, 1.61, 7.41, repro,
2006-05-15,0.40, -2.69, 1.05, 2.11, 1.61, 7.53, repro,
2006-05-16,-0.92, -1.43, -1.81, 2.10, 1.64, 7.56, repro,
2006-05-17,-1.01, -1.74, 0.83, 2.08, 1.64, 7.49, repro,
2006-05-18,-0.98, -1.99, 5.26, 2.09, 1.62, 7.39, repro,
2006-05-19,-1.84, -2.06, 7.11, 2.16, 1.65, 7.53, repro,
2006-05-20,-0.82, -1.86, 16.80, 2.18, 1.65, 7.61, repro,
2006-05-21,0.38, -1.14, 8.69, 2.16, 1.65, 7.55, repro,
2006-05-22,0.82, -2.21, 12.55, 2.14, 1.68, 7.59, repro,
2006-05-23,4.53, 0.01, 18.69, 2.15, 1.66, 7.59, repro,
2006-05-24,1.12, -0.36, 7.44, 2.15, 1.65, 7.51, repro,
2006-05-25,-1.17, -2.79, 2.77, 2.27, 1.71, 7.87, repro,
2006-05-26,-0.87, -2.63, 2.88, 2.21, 1.68, 7.72, repro,
2006-05-27,-0.08, -2.57, 7.66, 2.15, 1.64, 7.55, repro,
2006-05-28,-1.12, -2.23, 5.33, 2.14, 1.65, 7.50, repro,
2006-05-29,0.38, -1.14, 1.58, 2.14, 1.64, 7.49, repro,
2006-05-30,-0.44, -2.25, 0.63, 2.22, 1.69, 7.70, repro,
2006-05-31,-0.62, -2.95, 2.04, 2.22, 1.69, 7.76, repro,
2006-06-01,-0.66, -2.31, 7.66, 2.19, 1.69, 7.79, repro,
2006-06-02,-1.76, -2.65, -1.67, 2.32, 1.76, 8.19, repro,
2006-06-03,-2.39, -1.86, 3.26, 2.24, 1.71, 7.87, repro,
2006-06-04,-0.95, -1.02, 3.17, 2.21, 1.68, 7.72, repro,
2006-06-05,-1.50, -2.51, 7.71, 2.32, 1.70, 7.92, repro,
2006-06-06,-2.34, -2.83, 11.10, 2.24, 1.71, 7.81, repro,
2006-06-07,-2.27, -2.17, 1.43, 2.20, 1.68, 7.73, repro,
2006-06-08,-0.88, -2.22, 1.06, 2.14, 1.64, 7.51, repro,
2006-06-09,-2.18, -1.13, 5.19, 2.14, 1.65, 7.50, repro,
2006-06-10,-2.54, -3.24, 4.58, 2.14, 1.66, 7.53, repro,
2006-06-11,-1.31, -2.36, 9.21, 2.17, 1.65, 7.59, repro,
2006-06-12,-2.55, -2.09, 0.38, 2.18, 1.69, 7.73, repro,
2006-06-13,-1.64, -1.19, 2.11, 2.22, 1.71, 7.90, repro,
2006-06-14,-2.31, -1.68, 4.96, 2.14, 1.65, 7.53, repro,
2006-06-15,-1.46, -1.71, 7.42, 2.16, 1.69, 7.67, repro,
2006-06-16,-1.79, -2.14, 7.48, 2.22, 1.66, 7.62, repro,
2006-06-17,-1.65, -0.98, 4.92, 2.13, 1.63, 7.47, repro,
2006-06-18,-2.74, -2.12, 12.08, 2.23, 1.71, 7.90, repro,
2006-06-19,-2.24, -1.22, 3.16, 2.25, 1.70, 7.90, repro,
2006-06-20,-2.09, -2.00, 9.88, 2.20, 1.74, 7.95, repro,
2006-06-21,0.57, -3.47, 4.97, 2.17, 1.69, 7.71, repro,
2006-06-22,-1.22, -2.73, 1.84, 2.23, 1.69, 7.80, repro,
2006-06-23,-1.41, -1.69, -0.19, 2.16, 1.69, 7.77, repro,
2006-06-24,-1.73, -1.68, 4.44, 2.17, 1.69, 7.79, repro,
2006-06-25,-0.40, -1.88, 3.14, 2.16, 1.70, 7.78, repro,
2006-06-26,-2.38, -3.20, 0.83, 2.16, 1.69, 7.72, repro,
2006-06-27,-0.99, -4.12, 8.28, 2.24, 1.72, 7.93, repro,
2006-06-28,-1.09, -1.99, 11.78, 2.18, 1.71, 7.84, repro,
2006-06-29,-1.82, -3.03, 7.36, 2.11, 1.64, 7.62, repro,